Regional Weather Roundup
Issued by NWS Upton, NY

Current Version | Previous Version | Graphics & Text | Print | Product List | Glossary Off
Versions: 1 2 3 4 5 6 7 8 9 10 11 12 13 14 15 16 17 18 19 20 21 22 23 24 25 26 27 28 29 30 31 32 33 34 35 36 37 38 39 40 41 42 43 44 45 46 47 48 49 50

000
ASUS41 KOKX 221405
RWROKX

REGIONAL WEATHER ROUNDUP
NATIONAL WEATHER SERVICE NEW YORK NY
1000 AM EDT TUE JUL 22 2014

NOTE: "FAIR" INDICATES FEW OR NO CLOUDS BELOW 12,000 FEET WITH NO
SIGNIFICANT WEATHER AND/OR OBSTRUCTIONS TO VISIBILITY.

NYZ071-072-176-178-NJZ106-104-221500-
NEW YORK CITY METRO AREA


CITY           SKY/WX    TMP DP  RH WIND       PRES   REMARKS
CENTRAL PARK   SUNNY     78  64  61 CALM      30.19F
LAGUARDIA APRT MOSUNNY   81  64  56 SW8       30.15F
KENNEDY INTL   MOSUNNY   79  65  62 SW7       30.17F
NEWARK/LIBERTY MOSUNNY   81  67  62 SW7       30.16F
BRNX BOT. GARD   N/A     81  64  57 W6        30.18R
TETERBORO      SUNNY     81  66  60 VRB6      30.15F
$$

NYZ177-179-078>081-221500-
LONG ISLAND NEW YORK

CITY           SKY/WX    TMP DP  RH WIND       PRES   REMARKS
FARMINGDALE    SUNNY     79  65  62 VRB6      30.16F
ISLIP          MOSUNNY   82  65  56 W6        30.14F
SHIRLEY        SUNNY     81  65  58 SW8       30.16F
WESTHAMPTON    SUNNY     81  65  58 SW9       30.17F
MONTAUK POINT    N/A     76  63  64 W7        30.16F
$$

NYZ052-065-067-221500-
HUDSON VALLEY

CITY           SKY/WX    TMP DP  RH WIND       PRES   REMARKS
WHITE PLAINS   SUNNY     78  66  66 VRB5      30.16F
NEWBURGH       SUNNY     77  68  73 CALM      30.17F
MONTGOMERY     SUNNY     79  68  69 SW7       30.15F
POUGHKEEPSIE   SUNNY     79  66  64 SW7       30.13F
ALBANY         MOSUNNY   78  66  66 CALM      30.13F
$$

NJZ001-105-106-008-010-013-015-019>022-104-221500-
NEW JERSEY

CITY           SKY/WX    TMP DP  RH WIND       PRES   REMARKS
NEWARK/LIBERTY MOSUNNY   81  67  62 SW7       30.16F
TETERBORO      SUNNY     81  66  60 VRB6      30.15F
CALDWELL       SUNNY     78  67  68 S5        30.17F
MORRISTOWN     SUNNY     81  70  69 CALM      30.17F
SOMERVILLE     SUNNY     78  68  71 VRB6      30.16F
LINDEN         FAIR      81  67  62 W5        30.18F
SUSSEX         SUNNY     78  68  71 VRB5      30.17F
ANDOVER          N/A     76  67  73 VRB3      30.18F
TRENTON        SUNNY     78  68  71 SW8       30.17F
MILLVILLE      SUNNY     79  67  66 S5        30.19F
ATLANTIC CITY  SUNNY     79  65  62 CALM      30.19F
WRIGHTSTOWN    SUNNY     79  67  67 W5        30.17F
TOMS RIVER     SUNNY     81  64  57 CALM      30.19S
BELMAR         SUNNY     79  63  57 W5        30.18F
$$

PAZ047>061-062-071-221500-
EASTERN PENNSYLVANIA

CITY           SKY/WX    TMP DP  RH WIND       PRES   REMARKS
PHILADELPHIA   MOSUNNY   78  67  68 W7        30.19F
ALLENTOWN      SUNNY     77  67  71 W5        30.18F
SCRANTON       SUNNY     77  65  66 SW6       30.18F
$$

CTZ002-004>006-009-010-012-RIZ004-006-007-MAZ004-011-015-221500-
SOUTHERN NEW ENGLAND
 IN CT

CITY           SKY/WX    TMP DP  RH WIND       PRES   REMARKS
BRADLEY INTL   SUNNY     78  65  63 CALM      30.13F
HARTFORD       SUNNY     77  66  68 VRB6      30.13F
DANBURY        SUNNY     77  65  66 W8        30.17F
WTRBRY/OXFORD  SUNNY     75  64  69 VRB5      30.19F
BRIDGEPORT     SUNNY     76  67  73 SW10      30.15F
MERIDEN        SUNNY     79  67  66 SW3       30.14F
NEW HAVEN      SUNNY     77  67  71 SW5       30.15F
CHESTER        FAIR      79  68  69 SW6       30.16F
GROTON         SUNNY     74  67  78 SW8       30.14F
WILLIMANTIC    SUNNY     77  65  66 S3        30.14F

 IN RI

CITY           SKY/WX    TMP DP  RH WIND       PRES   REMARKS
PROVIDENCE     SUNNY     79  66  64 W6        30.13F
BLOCK ISLAND   SUNNY     75  64  69 W14       30.16F
WESTERLY       SUNNY     76  65  68 W8        30.15F

 IN MA

CITY           SKY/WX    TMP DP  RH WIND       PRES   REMARKS
BOSTON         MOSUNNY   79  65  62 VRB3      30.12F
WORCESTER      SUNNY     77  65  66 NW8       30.16F
WESTFIELD      SUNNY     76  66  71 CALM      30.13F
PROVINCETOWN   SUNNY     73  64  73 S7        30.13F
NANTUCKET      SUNNY     70  64  81 S5        30.15F
$$

ANZ330-335-338-340-345-350-353-355-221500-
COASTAL MARINE OBSERVATIONS


STATION/POSITION TIME  SKY/WX   TEMP    WIND        PRES    VSBY  WAVE
                                AIR SEA DIR/SP/G                  HT/PER
                 (UTC)          (F)     (DEG/KT/KT) (MB)    (MI)  (FT/S)
NY HARB ENTRANCE NOT AVBL
4S FIRE IS       NOT AVBL
23SW MTP         1400            73 69              1021.0          2/ 6
HUDSON CANYON    1400            73 73  180/  2/  2 1022.2          2/ 7
EXECUTION ROCKS  1400            75 71  190/  4/  6   N/A
WESTERN LI SOUND 1400            73     210/  6/  6   N/A           0
CENTRAL LI SOUND 1300            72 72  250/ 10/ 12   N/A           1/ 2
EASTERN LI SOUND 1300            74 67  250/  4/  6   N/A
ROBBINS REEF     1400            74     170/  4/  5   N/A
$$


>>>>>>>>>>>>>>>>>>>>>>>>>>>> KEY <<<<<<<<<<<<<<<<<<<<<<<<<<<
>                                                          <
>     SKY/WX - SKY CONDITION/PRESENT WEATHER               <
>     TMP    - TEMPERATURE IN FAHRENHEIT                   <
>     DP     - DEWPOINT IN FAHRENHEIT                      <
>     RH     - RELATIVE HUMIDITY IN PERCENT                <
>     WIND   - DIRECTION AND SPEED IN MPH                  <
>     PRES   - MEAN SEA LEVEL PRESSURE IN INCHES OF HG     <
>     WCI    - WIND CHILL INDEX                            <
>     VSB    - VISIBILITY IN MILES                         <
>     HX     - HEAT INDEX                                  <
>     TC     - TEMPERATURE IN CELSIUS                      <
>     VRB    - VARIABLE WIND DIRECTION                     <
>                                                          <
>>>>>>>>>>>>>>>>>>>>>>>>>>>> KEY <<<<<<<<<<<<<<<<<<<<<<<<<<<





USA.gov is the U.S. government's official web portal to all federal, state and local government web resources and services.